Location: Roland
(31.1349°N, 85.4372°W)
Time: 01:32:54
(UTC+00:00)

S-56A Canister/Altair - Pass Details

Date: 21 April 2021
Orbit: 632 x 2500 km, 38.9° (Epoch: 06 May)

Event Time Altitude Azimuth Distance (km) Brightness Sun altitude
Exits shadow 07:37:03 12° 69° (ENE) 1,942 10.1 -38.6°
Drops below altitude 10° 07:37:25 10° 71° (ENE) 2,065 10.3 -38.6°
Sets 07:39:42 0° 80° (E) 2,923 11.1 -38.3°
